Powrót do katalogu

FREGAT DEB

LostUNKNOWN
NORAD 47093·DEBRIS·🇷🇺 Russia

Wystrzelony Jul 18, 2011 z Baikonur Cosmodrome

Loading…

Następne Przeloty (najbliższe 24 godziny)

TLE

NieaktualneSource: Space-Track

Epoka: Nov 23, 2020, 03:22 UTC

1 47093U 11037NE  20328.14043953  .00036620  00000-0  12521-1 0  9998
2 47093  51.6082 271.0943 1589731  40.8455 329.1787 11.76089803  4579

Śledź FREGAT DEB w czasie rzeczywistym z AllMySat

Download on the App Store